[[{"header":{"parameterUnit":"m.s-1","parameterCategory":1,"la1":30.2991,"la2":30.254,"lo1":-89.0895,"lo2":-89.0444,"dy":0.0017,"dx":0.0017,"nx":28,"ny":28,"refTime":"2023-07-24T21:00:00:Z","depth":0,"parameterNumber":2,"parameterNumberName":"U-component_of_WINDS"},"data":[0,0,0,0,0,0,0,0,0,0,0,0,0,0,0,0,0,0,0,0,0,0,0,0,0,0,0,0,0,0,0,0,0,0,0,0,0,0,0,0,0,0,0,0,0,0,0,0,0,0,0,0,0,0,0,0,0,0,2.8054,2.8054,0,2.8074,2.8074,2.8074,2.7999,2.7997,2.7995,2.7993,2.8015,2.8018,2.802,0,0,0,0,0,0,0,0,0,0,0,0,0,2.795,2.7953,2.8054,2.8054,2.8054,2.8074,2.8074,2.8074,2.8,2.7997,2.7994,2.7992,2.8014,2.8017,2.8021,0,0,0,0,0,0,0,0,0,0,0,0,0,2.7985,2.7953,2.8054,2.8019,2.8016,2.8074,2.8074,2.8074,2.8,2.7997,2.7994,2.799,2.8013,2.8017,2.8021,2.8113,0,0,2.8033,2.8035,0,0,0,0,0,0,0,0,2.7984,2.7989,2.8024,2.8022,2.8019,2.803,2.8046,2.8087,2.8001,2.8007,2.7993,2.7989,2.8023,2.8026,2.8037,2.8114,2.8115,2.8034,2.8036,2.8038,2.8039,0,0,0,0,0,0,0,2.7981,2.7988,2.8062,2.8025,2.8021,2.8003,2.8004,2.8053,2.8033,2.8006,2.8,2.8004,2.8021,2.8034,2.8037,2.8115,2.8033,2.8037,2.8039,2.8041,2.8263,2.8266,0,0,0,0,0,0,2.7983,2.7986,2.8061,2.8062,2.7992,2.8007,2.8009,2.803,2.8033,2.803,2.8007,2.8,2.8028,2.8033,2.8038,2.8141,2.8038,2.8041,2.8044,2.826,2.8264,2.8268,0,0,0,0,0,0,2.7981,2.7991,2.806,2.8023,2.803,2.8013,2.8037,2.8032,2.8045,2.8033,2.8029,2.8023,2.8026,2.8032,2.8093,2.8141,2.8043,2.8047,2.8255,2.8261,2.8266,2.8352,0,0,0,0,0,0,2.7979,2.799,2.8025,2.8024,2.8033,2.8116,2.804,2.8035,2.8052,2.8043,2.8048,2.8045,2.8024,2.8088,2.8097,2.8145,2.805,2.8251,2.8258,2.8264,2.8345,2.8359,2.8372,0,0,0,0,0,2.7975,2.805,2.8028,2.8037,2.8076,2.8119,2.8124,2.8097,2.8056,2.809,2.8082,2.8045,2.8135,2.8095,2.8105,2.8154,2.8248,2.8256,2.8263,2.8338,2.8357,2.8372,0,0,0,0,0,0,2.8059,2.805,2.8024,2.8101,2.8111,2.8106,2.8149,2.8118,2.814,2.8132,2.8098,2.81,2.8166,2.8167,2.8122,2.8241,2.8184,2.8194,2.8238,2.8255,2.8268,2.8265,2.8053,0,0,0,0,0,2.8087,2.8122,2.8112,2.8181,2.8187,2.8167,2.8185,2.8164,2.8173,2.8177,2.8174,2.8184,2.8214,2.8235,2.8263,2.8345,2.8343,2.8384,2.8398,2.8409,2.8417,2.8457,2.8474,2.8293,2.8293,2.8293,0,0,2.8144,2.8143,2.8168,2.8198,2.8203,2.8239,2.8172,2.8214,2.824,2.8184,2.824,2.8238,2.8248,2.8319,2.835,2.8321,2.8467,2.8419,2.8428,2.843,2.8467,2.8484,2.8499,2.8299,2.8298,2.8297,0,0,2.8265,2.827,2.8325,2.8331,2.8339,2.8325,2.8338,2.8338,2.8333,2.8389,2.8346,2.8377,2.8431,2.8438,2.8449,2.857,2.8535,2.8581,2.8651,2.869,2.8704,2.8717,2.8756,2.8771,2.859,2.859,2.859,0,2.8335,2.8388,2.8358,2.8402,2.8415,2.8364,2.8419,2.8427,2.8444,2.8454,2.8421,2.8485,2.8488,2.8558,2.8587,2.8599,2.8611,2.8579,2.8705,2.8717,2.8728,2.8765,2.878,2.8595,2.8595,2.8594,2.8594,0,2.8472,2.8509,2.8553,2.8568,2.8587,2.8637,2.8613,2.8635,2.8612,2.8601,2.8656,2.8658,2.8683,2.8699,2.8678,2.8765,2.8746,2.8711,2.8652,2.8751,2.8785,2.8799,2.8602,2.8601,2.8599,2.8598,0,0,2.8647,2.8643,2.8659,2.8663,2.8667,2.8695,2.8742,2.8765,2.8782,2.8796,2.8832,2.8878,2.8843,2.8855,2.8834,2.8869,2.896,2.8828,2.8827,2.8849,2.9052,2.9076,2.9093,2.8938,2.894,2.8943,2.9049,0,2.8763,2.8841,2.8813,2.8892,2.8924,2.8875,2.8915,2.8921,2.8912,2.8938,2.8928,2.8959,2.8913,2.8919,2.8951,2.8942,2.8999,2.8934,2.8969,2.897,2.8964,2.9112,2.9139,2.9239,2.9063,2.9065,2.9067,0,2.891,2.8925,2.9007,2.9001,2.9013,2.9049,2.9066,2.9092,2.9097,2.9088,2.91,2.9071,2.9114,2.9058,2.9116,2.9073,2.9085,2.9083,2.9086,2.9086,2.9022,2.9112,2.9272,2.9285,2.9089,2.9087,2.9085,0,2.9024,2.9066,2.9119,2.9125,2.9121,2.9146,2.9146,2.9148,2.9162,2.9178,2.9186,2.9207,2.9218,2.9235,2.9211,2.9173,2.9272,2.9214,2.9263,2.9263,2.9284,2.9282,2.9444,2.9298,2.9298,2.9298,2.9297,0,2.9154,2.9205,2.9169,2.9202,2.9256,2.9224,2.9279,2.9274,2.9275,2.9304,2.9265,2.9294,2.9262,2.9288,2.927,2.9319,2.9325,2.9317,2.9311,2.9319,2.9319,2.9324,2.9315,2.9302,2.9301,2.93,2.9299,0,2.9291,2.927,2.9323,2.9313,2.9312,2.9352,2.9344,2.9373,2.936,2.9397,2.9405,2.9385,2.9412,2.9391,2.9419,2.9407,2.947,2.9456,2.9467,2.9462,2.951,2.9504,2.9678,2.9698,2.9543,2.9545,2.9546,0,2.9374,2.9411,2.9404,2.942,2.9421,2.9449,2.9462,2.9432,2.9447,2.9454,2.9481,2.9505,2.9522,2.9568,2.9556,2.9576,2.956,2.962,2.9563,2.9568,2.9556,2.9553,2.9555,2.963,2.9632,2.9634,2.9635,0,2.9522,2.9508,2.9529,2.9544,2.956,2.9572,2.9581,2.9596,2.9565,2.9584,2.9611,2.9624,2.965,2.9673,2.9689,2.9688,2.9656,2.9653,2.9665,2.9671,2.9674,2.9669,2.9494,2.9649,2.9647,2.9646,2.9646,2.9645,2.9631,2.966,2.9659,2.9681,2.9684,2.9692,2.9717,2.9706,2.9727,2.9745,2.9726,2.9757,2.9759,2.9776,2.9779,2.9803,2.9778,2.9796,2.98,2.9804,2.9808,2.9673,2.9806,2.9806,2.9805,2.9805,2.9805,0,2.9774,2.977,2.9791,2.9802,2.9819,2.9786,2.9793,2.981,2.9837,2.9841,2.9857,2.9886,2.9907,2.9896,2.9915,2.9935,2.9921,2.9941,2.9937,2.9937,2.9832,2.9818,2.9952,2.9952,2.9952,2.9952,2.9952,2.9952,2.985,2.9895,2.9881,2.9927,2.9923,2.9951,2.9957,2.9963,2.9965,2.9998,3.0015,3.0008,3.0005,3.0022,3.0039,3.0036,3.0043,3.0067,3.0058,2.9959,2.9945,2.9931,2.9917,3.007,3.007,3.016,3.0161,3.0162]},{"header":{"parameterUnit":"m.s-1","parameterCategory":1,"la1":30.2991,"la2":30.254,"lo1":-89.0895,"lo2":-89.0444,"dy":0.0017,"dx":0.0017,"nx":28,"ny":28,"refTime":"2023-07-24T21:00:00:Z","depth":0,"parameterNumber":3,"parameterNumberName":"V-component_of_WINDS"},"data":[0,0,0,0,0,0,0,0,0,0,0,0,0,0,0,0,0,0,0,0,0,0,0,0,0,0,0,0,0,0,0,0,0,0,0,0,0,0,0,0,0,0,0,0,0,0,0,0,0,0,0,0,0,0,0,0,0,0,0.7374,0.7374,0,0.739,0.739,0.739,0.739,0.739,0.739,0.739,0.7405,0.7406,0.7407,0,0,0,0,0,0,0,0,0,0,0,0,0,0.7341,0.7342,0.7374,0.7374,0.7374,0.739,0.739,0.739,0.739,0.739,0.739,0.739,0.7405,0.7406,0.7407,0,0,0,0,0,0,0,0,0,0,0,0,0,0.7356,0.7342,0.7374,0.7376,0.7377,0.739,0.739,0.739,0.739,0.739,0.739,0.739,0.7405,0.7406,0.7407,0.7418,0,0,0.741,0.741,0,0,0,0,0,0,0,0,0.7355,0.7357,0.7376,0.7376,0.7376,0.7388,0.7384,0.74,0.7391,0.7385,0.739,0.7389,0.74,0.7401,0.7405,0.7419,0.742,0.741,0.741,0.7411,0.7411,0,0,0,0,0,0,0,0.7354,0.7356,0.738,0.7376,0.7376,0.7376,0.7377,0.7387,0.7394,0.7386,0.7386,0.7388,0.74,0.7404,0.7405,0.742,0.741,0.741,0.7411,0.7411,0.7441,0.7442,0,0,0,0,0,0,0.7353,0.7356,0.7379,0.738,0.7365,0.7376,0.7378,0.7384,0.7394,0.7395,0.7388,0.7388,0.7402,0.7404,0.7406,0.7418,0.7411,0.7411,0.7412,0.7441,0.7441,0.7442,0,0,0,0,0,0,0.7352,0.7355,0.7379,0.7368,0.7371,0.7377,0.7384,0.7385,0.7389,0.7395,0.7397,0.7391,0.7402,0.7404,0.7415,0.7419,0.7412,0.7413,0.7441,0.7441,0.7442,0.7444,0,0,0,0,0,0,0.7351,0.7355,0.736,0.7368,0.7372,0.7388,0.7384,0.7385,0.739,0.739,0.7398,0.74,0.7402,0.7413,0.7415,0.742,0.7413,0.744,0.7441,0.7441,0.7444,0.7445,0.7445,0,0,0,0,0,0.735,0.736,0.736,0.7363,0.7378,0.7389,0.7391,0.7394,0.7391,0.7396,0.7399,0.7399,0.7418,0.7414,0.7417,0.7422,0.744,0.7441,0.7441,0.7444,0.7445,0.7445,0,0,0,0,0,0,0.7353,0.7362,0.7362,0.7375,0.7381,0.7389,0.7395,0.7395,0.7402,0.7401,0.7404,0.7406,0.7416,0.742,0.7416,0.7432,0.7428,0.743,0.7429,0.743,0.7431,0.743,0.7414,0,0,0,0,0,0.7355,0.7364,0.737,0.7382,0.7384,0.7389,0.7394,0.7395,0.7402,0.7404,0.7409,0.7415,0.7421,0.7426,0.7433,0.7444,0.7445,0.7448,0.7449,0.745,0.7451,0.7455,0.7456,0.7444,0.7444,0.7444,0,0,0.736,0.7366,0.7371,0.7382,0.7387,0.7394,0.7391,0.74,0.7405,0.7405,0.7415,0.7418,0.7425,0.7435,0.744,0.7438,0.7454,0.745,0.7451,0.7452,0.7455,0.7457,0.7458,0.7444,0.7444,0.7444,0,0,0.7373,0.7378,0.7388,0.7392,0.7399,0.7401,0.7403,0.741,0.7412,0.7422,0.7422,0.7427,0.744,0.7444,0.7447,0.7458,0.7457,0.746,0.7464,0.7468,0.7469,0.747,0.7473,0.7474,0.7461,0.7461,0.7461,0,0.7378,0.739,0.7392,0.74,0.7404,0.7404,0.7412,0.7416,0.7425,0.7428,0.7426,0.7439,0.7444,0.7454,0.7456,0.7459,0.7461,0.7459,0.7469,0.747,0.7471,0.7473,0.7474,0.7461,0.7461,0.7461,0.7461,0,0.7395,0.7403,0.7409,0.7417,0.7422,0.743,0.7433,0.7437,0.7437,0.7439,0.7448,0.7452,0.7459,0.7462,0.7463,0.7471,0.747,0.7468,0.7465,0.7472,0.7474,0.7475,0.7461,0.7461,0.7461,0.7461,0,0,0.7413,0.7419,0.7422,0.7424,0.7431,0.7436,0.7443,0.745,0.7453,0.7458,0.7463,0.7472,0.747,0.7474,0.7474,0.7478,0.7484,0.7476,0.7476,0.7477,0.7492,0.7493,0.7495,0.7484,0.7484,0.7484,0.7491,0,0.7425,0.7439,0.7439,0.7451,0.7457,0.7455,0.7461,0.7465,0.7466,0.7471,0.7472,0.7478,0.7476,0.7478,0.7481,0.7483,0.7487,0.7482,0.7488,0.7488,0.7486,0.7496,0.7498,0.7505,0.7493,0.7493,0.7493,0,0.7443,0.7448,0.746,0.7463,0.7465,0.7471,0.7475,0.748,0.7483,0.7484,0.7487,0.7487,0.7492,0.7488,0.7495,0.7491,0.7493,0.7494,0.7494,0.7495,0.7491,0.7497,0.7507,0.7508,0.7495,0.7494,0.7494,0,0.7453,0.7462,0.747,0.7473,0.7477,0.748,0.7482,0.7485,0.7488,0.7491,0.7493,0.7497,0.7499,0.7502,0.7502,0.7499,0.7508,0.7505,0.7508,0.7508,0.7511,0.7511,0.7522,0.7512,0.7512,0.7512,0.7512,0,0.7467,0.7475,0.7475,0.748,0.7487,0.7486,0.7493,0.7495,0.7497,0.7501,0.7499,0.7503,0.7503,0.7506,0.7506,0.7511,0.7512,0.7512,0.7512,0.7512,0.7512,0.7514,0.7513,0.7512,0.7512,0.7512,0.7512,0,0.7481,0.7481,0.7489,0.7492,0.7492,0.7497,0.7499,0.7503,0.7503,0.7508,0.7509,0.751,0.7513,0.7513,0.7517,0.7517,0.7523,0.7522,0.7522,0.7522,0.7525,0.7524,0.7537,0.7538,0.7528,0.7528,0.7528,0,0.749,0.7495,0.7497,0.75,0.7502,0.7506,0.7508,0.7507,0.751,0.7512,0.7516,0.7519,0.7521,0.7527,0.7527,0.753,0.7529,0.7533,0.7529,0.7529,0.7528,0.7528,0.7527,0.7534,0.7534,0.7534,0.7534,0,0.7506,0.7505,0.7509,0.7512,0.7515,0.7517,0.752,0.7521,0.7521,0.7523,0.7526,0.7528,0.7532,0.7534,0.7536,0.7537,0.7535,0.7535,0.7536,0.7536,0.7536,0.7535,0.7523,0.7535,0.7535,0.7535,0.7535,0.7535,0.7517,0.7521,0.7522,0.7526,0.7527,0.7528,0.7532,0.7532,0.7534,0.7537,0.7536,0.7539,0.754,0.7542,0.7543,0.7545,0.7543,0.7544,0.7545,0.7545,0.7545,0.7535,0.7545,0.7545,0.7545,0.7545,0.7545,0,0.7532,0.7532,0.7536,0.7538,0.754,0.7538,0.7539,0.7541,0.7544,0.7545,0.7547,0.7549,0.7551,0.7551,0.7552,0.7554,0.7553,0.7554,0.7554,0.7554,0.7547,0.7546,0.7555,0.7555,0.7555,0.7555,0.7555,0.7555,0.754,0.7546,0.7545,0.755,0.755,0.7554,0.7554,0.7555,0.7555,0.7559,0.756,0.7559,0.7559,0.756,0.7561,0.756,0.7561,0.7562,0.7562,0.7555,0.7554,0.7554,0.7552,0.7563,0.7563,0.7568,0.7568,0.7568]}]]